FW0954 Weather Reports


Display with metric or nautical units.
time (UTC)temp
F
wind
direction
speed
MPH
gust
MPH
rain 1hr
in
rain 24hr
in
rain mn
in
humidity
%
barometer
mb
20260906221502 101 110 1.0 5.0 0.00 0.00 0.00 48 1011.0
20260906221002 101 105 1.0 4.0 0.00 0.00 0.00 47 1011.1
20260906220502 102 139 1.0 5.0 0.00 0.00 0.00 48 1011.1
20260906220002 102 147 1.0 5.0 0.00 0.00 0.00 48 1011.1
20260906215502 102 152 1.0 4.0 0.00 0.00 0.00 47 1011.0
20260906215001 101 132 1.0 4.0 0.00 0.00 0.00 47 1011.0
20260906214501 101 90 1.0 5.0 0.00 0.00 0.00 48 1011.0
20260906214002 101 98 2.0 9.0 0.00 0.00 0.00 47 1011.1
20260906213502 102 112 1.0 9.0 0.00 0.00 0.00 48 1011.1
20260906213002 102 162 2.0 8.0 0.00 0.00 0.00 46 1011.1
20260906212502 102 169 3.0 8.0 0.00 0.00 0.00 47 1011.3
20260906212002 102 154 2.0 6.0 0.00 0.00 0.00 46 1011.4
20260906211502 102 111 1.0 4.0 0.00 0.00 0.00 47 1011.5
20260906210502 102 98 1.0 4.0 0.00 0.00 0.00 47 1011.7
20260906210001 102 105 1.0 4.0 0.00 0.00 0.00 47 1011.7
20260906205502 102 101 1.0 4.0 0.00 0.00 0.00 47 1011.8
20260906205002 102 100 1.0 5.0 0.00 0.00 0.00 47 1011.9
20260906204502 102 117 1.0 5.0 0.00 0.00 0.00 47 1012.0
20260906204002 102 123 1.0 5.0 0.00 0.00 0.00 48 1012.1
20260906203503 102 117 1.0 5.0 0.00 0.00 0.00 47 1012.1
20260906203002 102 107 1.0 4.0 0.00 0.00 0.00 47 1012.1
20260906202502 102 101 1.0 4.0 0.00 0.00 0.00 47 1012.2
20260906202001 102 124 1.0 3.0 0.00 0.00 0.00 47 1012.2
20260906201502 102 126 1.0 4.0 0.00 0.00 0.00 47 1012.2
20260906201002 102 111 1.0 4.0 0.00 0.00 0.00 48 1012.2
20260906200001 102 98 1.0 5.0 0.00 0.00 0.00 48 1012.4
20260906195502 102 83 1.0 5.0 0.00 0.00 0.00 48 1012.5
20260906195002 101 102 1.0 5.0 0.00 0.00 0.00 48 1012.5
20260906194503 102 108 1.0 5.0 0.00 0.00 0.00 48 1012.5
20260906194002 102 103 1.0 5.0 0.00 0.00 0.00 48 1012.5
20260906193502 102 115 1.0 5.0 0.00 0.00 0.00 48 1012.6
20260906193002 101 110 1.0 5.0 0.00 0.00 0.00 50 1012.6
20260906192503 101 126 1.0 4.0 0.00 0.00 0.00 49 1012.6
20260906192002 101 130 1.0 5.0 0.00 0.00 0.00 48 1012.8
20260906191502 101 130 2.0 5.0 0.00 0.00 0.00 49 1012.8
20260906191001 100 137 2.0 8.0 0.00 0.00 0.00 50 1012.9
20260906190502 100 154 2.0 8.0 0.00 0.00 0.00 50 1013.0
20260906185502 100 137 1.0 7.0 0.00 0.00 0.00 50 1013.0
20260906185002 100 118 1.0 6.0 0.00 0.00 0.00 51 1013.1
20260906184503 99 160 2.0 7.0 0.00 0.00 0.00 52 1013.1
20260906184002 99 166 2.0 7.0 0.00 0.00 0.00 52 1013.2
20260906183002 100 161 2.0 6.0 0.00 0.00 0.00 52 1013.3
20260906182502 100 165 1.0 5.0 0.00 0.00 0.00 51 1013.4
20260906182001 100 167 1.0 4.0 0.00 0.00 0.00 52 1013.5
20260906181502 100 173 1.0 6.0 0.00 0.00 0.00 54 1013.6
20260906181002 99 177 1.0 6.0 0.00 0.00 0.00 54 1013.8
20260906180003 99 179 1.0 4.0 0.00 0.00 0.00 55 1014.0
20260906175502 99 145 2.0 5.0 0.00 0.00 0.00 55 1014.0
20260906175002 98 129 1.0 5.0 0.00 0.00 0.00 55 1014.1
20260906174503 98 124 1.0 5.0 0.00 0.00 0.00 56 1014.1
20260906174002 97 139 1.0 5.0 0.00 0.00 0.00 57 1014.2
20260906173003 97 108 1.0 4.0 0.00 0.00 0.00 58 1014.3
20260906172503 96 104 2.0 4.0 0.00 0.00 0.00 59 1014.3
20260906172002 97 128 1.0 4.0 0.00 0.00 0.00 59 1014.3
20260906171002 96 76 1.0 4.0 0.00 0.00 0.00 62 1014.5
20260906170503 95 154 2.0 6.0 0.00 0.00 0.00 61 1014.6
20260906170003 95 173 2.0 6.0 0.00 0.00 0.00 61 1014.5
20260906165502 95 177 2.0 5.0 0.00 0.00 0.00 60 1014.6
20260906165002 95 179 1.0 4.0 0.00 0.00 0.00 61 1014.7
20260906164502 94 182 1.0 5.0 0.00 0.00 0.00 62 1014.8
20260906163503 94 177 2.0 6.0 0.00 0.00 0.00 63 1014.7
20260906163003 94 169 2.0 6.0 0.00 0.00 0.00 63 1014.9
20260906162502 93 105 1.0 4.0 0.00 0.00 0.00 64 1014.8
20260906162002 93 94 1.0 4.0 0.00 0.00 0.00 65 1014.7
20260906161503 93 119 0.0 3.0 0.00 0.00 0.00 66 1014.7
20260906161002 92 136 0.0 4.0 0.00 0.00 0.00 66 1014.7
20260906160502 92 151 0.0 4.0 0.00 0.00 0.00 69 1014.9
20260906155502 91 159 1.0 4.0 0.00 0.00 0.00 70 1015.0
20260906155002 91 167 1.0 4.0 0.00 0.00 0.00 71 1015.0
20260906154502 90 170 1.0 4.0 0.00 0.00 0.00 71 1014.9
20260906154003 90 155 1.0 3.0 0.00 0.00 0.00 72 1014.8
20260906153002 89 108 0.0 3.0 0.00 0.00 0.00 72 1014.8
20260906152502 89 130 0.0 3.0 0.00 0.00 0.00 73 1014.6
20260906152003 89 145 0.0 2.0 0.00 0.00 0.00 73 1014.5
20260906151503 89 133 0.0 3.0 0.00 0.00 0.00 73 1014.6
20260906151003 88 134 0.0 3.0 0.00 0.00 0.00 73 1014.7
20260906150502 88 125 0.0 3.0 0.00 0.00 0.00 74 1014.7
20260906145502 87 148 0.0 2.0 0.00 0.00 0.00 77 1014.5
20260906144503 86 145 1.0 3.0 0.00 0.00 0.00 78 1014.6
20260906144002 86 122 0.0 3.0 0.00 0.00 0.00 78 1014.6
20260906143003 85 162 0.0 2.0 0.00 0.00 0.00 80 1014.6
20260906142503 84 193 0.0 3.0 0.00 0.00 0.00 82 1014.7
20260906141502 83 189 1.0 3.0 0.00 0.00 0.00 84 1014.7
20260906140502 83 181 1.0 3.0 0.00 0.00 0.00 84 1014.7
20260906140003 82 166 0.0 2.0 0.00 0.00 0.00 85 1014.6
20260906135502 82 154 0.0 1.0 0.00 0.00 0.00 87 1014.7
20260906135002 81 0 0.0 0.0 0.00 0.00 0.00 88 1014.6
20260906134002 79 170 0.0 1.0 0.00 0.00 0.00 92 1014.5
20260906133503 79 162 0.0 2.0 0.00 0.00 0.00 92 1014.4
20260906133003 78 169 0.0 2.0 0.00 0.00 0.00 93 1014.4
20260906132503 77 183 0.0 2.0 0.00 0.00 0.00 94 1014.3
20260906132003 77 183 0.0 2.0 0.00 0.00 0.00 94 1014.3
20260906131503 77 181 0.0 2.0 0.00 0.00 0.00 94 1014.4
20260906131003 77 178 0.0 2.0 0.00 0.00 0.00 94 1014.3
20260906130503 77 169 0.0 1.0 0.00 0.00 0.00 94 1014.4
20260906125503 76 164 0.0 1.0 0.00 0.00 0.00 95 1014.2
20260906125003 76 164 0.0 1.0 0.00 0.00 0.00 95 1014.2
20260906124503 76 164 0.0 1.0 0.00 0.00 0.00 95 1014.1
20260906124003 76 0 0.0 0.0 0.00 0.00 0.00 95 1014.1
20260906123003 76 0 0.0 0.0 0.00 0.00 0.00 94 1014.0
20260906122502 76 0 0.0 0.0 0.00 0.00 0.00 94 1014.0
20260906122002 76 0 0.0 0.0 0.00 0.00 0.00 94 1013.9
20260906121503 76 0 0.0 0.0 0.00 0.00 0.00 94 1013.9
20260906121003 76 0 0.0 0.0 0.00 0.00 0.00 94 1013.9
20260906120502 76 0 0.0 0.0 0.00 0.00 0.00 94 1013.9
20260906115503 76 0 0.0 0.0 0.00 0.00 0.00 94 1013.8
20260906115003 76 0 0.0 0.0 0.00 0.00 0.00 94 1013.8
20260906114502 76 0 0.0 0.0 0.00 0.00 0.00 94 1013.8
20260906114003 76 164 0.0 1.0 0.00 0.00 0.00 94 1013.8
20260906113503 76 164 0.0 1.0 0.00 0.00 0.00 94 1013.8
20260906113003 76 0 0.0 0.0 0.00 0.00 0.00 94 1013.8
20260906112503 76 0 0.0 0.0 0.00 0.00 0.00 94 1013.7
20260906112003 76 0 0.0 0.0 0.00 0.00 0.00 94 1013.7
20260906111503 76 0 0.0 0.0 0.00 0.00 0.00 93 1013.7
20260906111003 76 0 0.0 0.0 0.00 0.00 0.00 93 1013.6
20260906110503 76 0 0.0 0.0 0.00 0.00 0.00 93 1013.6
20260906110003 76 0 0.0 0.0 0.00 0.00 0.00 93 1013.5
20260906105502 76 0 0.0 0.0 0.00 0.00 0.00 93 1013.5
20260906105002 76 0 0.0 0.0 0.00 0.00 0.00 93 1013.4
20260906104003 77 0 0.0 0.0 0.00 0.00 0.00 93 1013.4
20260906103503 77 0 0.0 0.0 0.00 0.00 0.00 93 1013.4
20260906103003 77 0 0.0 0.0 0.00 0.00 0.00 93 1013.3
20260906102003 77 0 0.0 0.0 0.00 0.00 0.00 93 1013.2
20260906100503 77 0 0.0 0.0 0.00 0.00 0.00 93 1013.2
20260906100003 77 0 0.0 0.0 0.00 0.00 0.00 93 1013.2
20260906095503 77 0 0.0 0.0 0.00 0.00 0.00 93 1013.1
20260906095003 77 0 0.0 0.0 0.00 0.00 0.00 93 1013.0
20260906093503 77 160 0.0 2.0 0.00 0.00 0.00 93 1012.8
20260906093002 77 163 0.0 2.0 0.00 0.00 0.00 93 1012.7
20260906092003 77 192 0.0 2.0 0.00 0.00 0.00 93 1012.6
20260906091503 77 192 0.0 2.0 0.00 0.00 0.00 93 1012.8
20260906091003 77 0 0.0 0.0 0.00 0.00 0.00 92 1012.8
20260906090503 77 0 0.0 0.0 0.00 0.00 0.00 92 1012.7
20260906090003 77 0 0.0 0.0 0.00 0.00 0.00 92 1012.6
20260906085503 77 0 0.0 0.0 0.00 0.00 0.00 91 1012.6
20260906085003 77 0 0.0 0.0 0.00 0.00 0.00 91 1012.6
20260906084503 77 0 0.0 0.0 0.00 0.00 0.00 91 1012.6
20260906084004 77 0 0.0 0.0 0.00 0.00 0.00 91 1012.6
20260906083003 77 0 0.0 0.0 0.00 0.00 0.00 90 1012.5
20260906082503 77 0 0.0 0.0 0.00 0.00 0.00 90 1012.6
20260906082003 77 0 0.0 0.0 0.00 0.00 0.00 90 1012.8
20260906081503 78 0 0.0 0.0 0.00 0.00 0.00 90 1012.8
20260906081003 78 0 0.0 0.0 0.00 0.00 0.00 90 1012.8
20260906080503 78 0 0.0 0.0 0.00 0.00 0.00 90 1012.8
20260906080004 78 0 0.0 0.0 0.00 0.00 0.00 89 1012.8
20260906075503 78 0 0.0 0.0 0.00 0.00 0.00 89 1012.8
20260906075004 78 0 0.0 0.0 0.00 0.00 0.00 89 1012.8
20260906074003 78 0 0.0 0.0 0.00 0.00 0.00 89 1012.8
20260906073503 79 168 0.0 1.0 0.00 0.00 0.00 89 1012.9
20260906073003 79 171 0.0 1.0 0.00 0.00 0.00 88 1012.8
20260906072504 79 173 0.0 1.0 0.00 0.00 0.00 88 1012.9
20260906072003 79 0 0.0 0.0 0.00 0.00 0.00 88 1012.9
20260906071503 79 0 0.0 0.0 0.00 0.00 0.00 87 1012.9
20260906071004 80 156 0.0 1.0 0.00 0.00 0.00 87 1012.8
20260906070503 80 164 0.0 2.0 0.00 0.00 0.00 87 1013.0
20260906070003 80 172 0.0 2.0 0.00 0.00 0.00 87 1012.9
20260906065003 80 0 0.0 0.0 0.00 0.00 0.00 87 1012.8
20260906064003 80 182 0.0 1.0 0.00 0.00 0.00 87 1012.6
20260906063504 80 178 0.0 3.0 0.00 0.00 0.00 86 1012.9
20260906063003 80 183 1.0 3.0 0.00 0.00 0.00 86 1012.9
20260906062503 80 189 1.0 3.0 0.00 0.00 0.00 86 1012.9
20260906062003 80 188 1.0 3.0 0.00 0.00 0.00 86 1012.9
20260906061503 80 177 0.0 3.0 0.00 0.00 0.00 85 1013.1
20260906061004 80 175 0.0 3.0 0.00 0.00 0.00 85 1013.2
20260906060003 81 170 1.0 3.0 0.00 0.00 0.00 85 1013.2
20260906054004 81 169 1.0 5.0 0.00 0.00 0.00 83 1013.2
20260906053504 81 173 1.0 5.0 0.00 0.00 0.00 83 1013.2
20260906053004 82 179 0.0 5.0 0.00 0.00 0.00 83 1013.2
20260906052504 82 172 0.0 2.0 0.00 0.00 0.00 82 1013.2
20260906052004 82 174 0.0 2.0 0.00 0.00 0.00 82 1013.2
20260906051503 82 173 0.0 2.0 0.00 0.00 0.00 81 1013.3
20260906050002 82 168 1.0 3.0 0.00 0.00 0.00 80 1013.0
20260906045501 82 162 1.0 3.0 0.00 0.00 0.00 80 1013.1
20260906045001 83 169 1.0 4.0 0.00 0.00 0.00 79 1013.2
20260906044001 83 181 2.0 6.0 0.00 0.00 0.00 79 1012.7
20260906043501 83 184 1.0 6.0 0.00 0.00 0.00 79 1012.8
20260906043001 83 189 1.0 3.0 0.00 0.00 0.00 79 1012.8
20260906042502 83 185 0.0 2.0 0.00 0.00 0.00 79 1012.9
20260906042001 83 196 0.0 2.0 0.00 0.00 0.00 79 1012.8
20260906041502 83 176 1.0 4.0 0.00 0.00 0.00 79 1012.9
20260906041001 83 175 2.0 5.0 0.00 0.00 0.00 79 1013.1
20260906040501 84 173 1.0 5.0 0.00 0.00 0.00 78 1013.2
20260906040001 84 168 1.0 5.0 0.00 0.00 0.00 78 1013.2
20260906035501 84 176 1.0 5.0 0.00 0.00 0.00 77 1013.2
20260906034001 84 173 1.0 5.0 0.00 0.00 0.00 77 1013.1
20260906033001 84 176 0.0 2.0 0.00 0.00 0.00 77 1012.9
20260906031502 84 169 0.0 3.0 0.00 0.00 0.00 77 1013.1
20260906031001 84 158 0.0 2.0 0.00 0.00 0.00 76 1012.9
20260906030002 85 185 1.0 4.0 0.00 0.00 0.00 76 1012.9
20260906025501 85 188 1.0 4.0 0.00 0.00 0.00 76 1012.8
20260906025001 85 193 1.0 3.0 0.00 0.00 0.00 76 1012.9
20260906024501 85 188 1.0 3.0 0.00 0.00 0.00 76 1012.9
20260906024002 85 175 1.0 6.0 0.00 0.00 0.00 76 1012.8
20260906023501 85 175 1.0 6.0 0.00 0.00 0.00 76 1012.7
20260906023001 85 174 1.0 5.0 0.00 0.00 0.00 75 1012.7
20260906022501 85 179 1.0 5.0 0.00 0.00 0.00 75 1012.6
20260906022001 86 183 1.0 4.0 0.00 0.00 0.00 75 1012.5
20260906021502 86 172 1.0 4.0 0.00 0.00 0.00 75 1012.4
20260906020501 86 170 1.0 5.0 0.00 0.00 0.00 75 1012.2
20260906015002 86 176 1.0 4.0 0.00 0.00 0.00 74 1012.1
20260906014501 86 172 1.0 4.0 0.00 0.00 0.00 74 1012.0
20260906013501 87 161 1.0 5.0 0.00 0.00 0.00 73 1011.9
20260906013002 87 157 1.0 3.0 0.00 0.00 0.00 72 1011.8
20260906012001 87 166 1.0 5.0 0.00 0.00 0.00 71 1011.7
20260906011502 87 166 1.0 4.0 0.00 0.00 0.00 70 1011.5
20260906011002 88 168 1.0 4.0 0.00 0.00 0.00 70 1011.5
20260906010501 88 173 2.0 6.0 0.00 0.00 0.00 69 1011.5
20260906010002 88 170 2.0 8.0 0.00 0.00 0.00 69 1011.5
20260906005502 88 161 2.0 8.0 0.00 0.00 0.00 68 1011.5
20260906005002 89 155 2.0 8.0 0.00 0.00 0.00 67 1011.4
20260906004501 89 150 2.0 8.0 0.00 0.00 0.00 66 1011.6
20260906004002 90 151 3.0 8.0 0.00 0.00 0.00 65 1011.6
20260906003502 90 144 2.0 10.0 0.00 0.00 0.00 64 1011.5
20260906003002 91 147 3.0 10.0 0.00 0.00 0.00 63 1011.5
20260906001001 95 150 2.0 11.0 0.00 0.00 0.00 56 1011.2
20260906000502 96 152 2.0 10.0 0.00 0.00 0.00 55 1011.1
20260906000002 96 162 3.0 10.0 0.00 0.00 0.00 54 1011.1
20260905235502 97 162 3.0 10.0 0.00 0.00 0.00 54 1011.2
20260905234502 98 157 2.0 8.0 0.00 0.00 0.00 54 1011.0
20260905233502 100 149 1.0 9.0 0.00 0.00 0.00 51 1010.8
20260905233002 101 153 0.0 3.0 0.00 0.00 0.00 48 1010.7
20260905232002 101 186 1.0 3.0 0.00 0.00 0.00 47 1010.7
20260905231502 101 160 0.0 2.0 0.00 0.00 0.00 47 1010.8
20260905231002 101 120 0.0 2.0 0.00 0.00 0.00 47 1010.8
20260905230502 101 109 0.0 5.0 0.00 0.00 0.00 48 1010.9
20260905230002 101 112 0.0 5.0 0.00 0.00 0.00 47 1010.9
20260905225502 101 107 0.0 1.0 0.00 0.00 0.00 47 1010.8
20260905225001 101 84 0.0 2.0 0.00 0.00 0.00 47 1010.9
20260905224502 101 81 0.0 3.0 0.00 0.00 0.00 47 1010.8
20260905224002 101 96 0.0 3.0 0.00 0.00 0.00 47 1010.8
20260905223502 101 117 1.0 3.0 0.00 0.00 0.00 48 1010.7
20260905223001 101 110 1.0 3.0 0.00 0.00 0.00 47 1010.8
20260905222501 101 86 0.0 3.0 0.00 0.00 0.00 49 1010.7